Location: Krakow
(50.0830°N, 19.9170°E)
Time: 18:12:35
(UTC+01:00)

SR - Pass Details

Date: 16 February 2023
Orbit: 582 x 867 km, 66.7° (Epoch: 20 March)

Event Time Altitude Azimuth Distance (km) Brightness Sun altitude
Rises 09:49:25 0° 166° (SSE) 3,171 ? 21.8°
Reaches altitude 10° 09:52:41 10° 146° (SE) 2,191 ? 22.1°
Maximum altitude 09:55:39 16° 109° (ESE) 1,769 ? 22.3°
Drops below altitude 10° 09:58:29 10° 72° (ENE) 2,091 ? 22.6°
Sets 10:01:29 0° 51° (NE) 2,955 ? 22.8°
